This is the latest recevied weather packets stored in our database for station/object KD8OZS. If no packets are shown the sender has not sent any weather packets the latest 1 day(s).
| Time | Temp. | Humidity | Pressure | Rain* | Wind** | Luminosity | Snow |
|---|---|---|---|---|---|---|---|
| 1836274820 | 16.11° C | 92% | 1013.3 hPa | 0 mm | 0 m/s | 0 W/m² | - |
| 1836274518 | 16.11° C | 91% | 1013.4 hPa | 0 mm | 0 m/s | 0 W/m² | - |
| 1836274372 | 16.11° C | 92% | 1013.1 hPa | 0 mm | 0 m/s | 0 W/m² | - |
| 1836274216 | 16.11° C | 91% | 1013.3 hPa | 0 mm | 0 m/s | 0 W/m² | - |
| 1836273910 | 16.67° C | 91% | 1013 hPa | 0 mm | 0 m/s | 0 W/m² | - |
| 1778035190 | 10.56° C | 98% | 1001 hPa | 3.05 mm | 0.45 m/s, 251° | 0 W/m² | - |
| 1778034887 | 10.56° C | 98% | 1000.9 hPa | 3.05 mm | 0 m/s | 0 W/m² | - |
| 1778034584 | 10.56° C | 98% | 1001 hPa | 3.56 mm | 0 m/s | 0 W/m² | - |
| 1778034282 | 10.56° C | 98% | 1000.9 hPa | 1.78 mm | 0.45 m/s, 250° | 0 W/m² | - |
| 1778033979 | 10.56° C | 98% | 1000.7 hPa | 1.27 mm | 0 m/s | 0 W/m² | - |
| 1778033676 | 10.56° C | 98% | 1001 hPa | 1.27 mm | 0.45 m/s, 250° | 0 W/m² | - |
| 1778033373 | 10.56° C | 98% | 1001.1 hPa | 0 mm | 0.89 m/s, 245° | 0 W/m² | - |
| 1778033071 | 11.11° C | 98% | 1000.9 hPa | 1.78 mm | 0.45 m/s, 243° | 0 W/m² | - |
| 1778032768 | 11.11° C | 98% | 1000.7 hPa | 1.27 mm | 1.34 m/s, 343° | 0 W/m² | - |
| 1778032466 | 11.67° C | 98% | 1000.9 hPa | 1.27 mm | 0.45 m/s, 248° | 0 W/m² | - |
| 1778032162 | 11.67° C | 98% | 1000.7 hPa | 1.78 mm | 0.45 m/s, 201° | 0 W/m² | - |
| 1778031860 | 11.67° C | 98% | 1000.5 hPa | 3.05 mm | 0.89 m/s, 263° | 0 W/m² | - |
| 1778031556 | 11.67° C | 98% | 1000.7 hPa | 4.32 mm | 0 m/s | 0 W/m² | - |
| 1778031254 | 13.33° C | 97% | 1000.5 hPa | 6.1 mm | 2.24 m/s, 301° | 0 W/m² | - |
| 1778030950 | 13.89° C | 98% | 1000.4 hPa | 8.89 mm | 0.45 m/s, 257° | 0 W/m² | - |
| 1778030647 | 13.89° C | 98% | 1000.4 hPa | 9.65 mm | 0.45 m/s, 250° | 0 W/m² | - |
| 1778030344 | 13.89° C | 98% | 999.9 hPa | 13.72 mm | 0 m/s | 0 W/m² | - |
| 1778030041 | 13.89° C | 98% | 999.9 hPa | 12.7 mm | 0 m/s | 0 W/m² | - |
| 1778029738 | 13.89° C | 98% | 999.7 hPa | 7.87 mm | 0 m/s | 0 W/m² | - |
| 1778029436 | 13.89° C | 97% | 999.6 hPa | 6.1 mm | 0 m/s | 0 W/m² | - |
* Rain latest hour (hover to see other rain measurements)
** Current wind speed in m/s (hover to see current wind gust speed)